GOES-S (43226 NORAD) Tracking and Keplerian Element Data

This shows tracking and keplerian element data for the satellite.

Feedback or suggestion? Click here.




ElementValue
Catalog43226
NameGOES-S
Epoch Orbit261
Epoch Day316.23260681
Epoch Year2018
RAAN95.1701
Inclination0.0422
Eccentricity0.000169
Argument of Perigee252.7273
Mean Anonmoly12.1259
Mean Motion0.99584436
Decay Rate1.09E-06
L11 43226U 18022A 18316.23260681 .00000109 00000-0 00000-0 0 9997
L22 43226 0.0422 95.1701 0001690 252.7273 12.1259 0.99584436 2611

Live tracking and technical data element details for GOES-S (NORAD 43226). GOES-S can be tracked NOW for your location showing map with azimuth and elevation plus other details from your city location.

Track the satellite on the map from your city or location and see movement details for azimuth, elevation, latitude, longitude, range, height, and movement on the map or in text.







IsCatalogInMostPopularTable: catalog: 43226, numindb: 197
Update: records affected: 1



GetName: 43226 GOES-S

Hit Count: updated at: Wed, 14 Nov 2018 15:10:31 GMT